Location: Biltmore Gardens
(41.6070°N, 83.4666°W)
Time: 14:04:36
(UTC+00:00)

MSX - Pass Details

Date: 14 July 2020
Orbit: 894 x 906 km, 98.8° (Epoch: 04 August)

Event Time Altitude Azimuth Distance (km) Brightness Sun altitude
Rises 08:52:25 0° 16° (NNE) 3,518 8.1 -12.7°
Reaches altitude 10° 08:54:52 10° 19° (NNE) 2,574 7.3 -12.4°
Maximum altitude 09:00:34 67° 102° (ESE) 971 4.2 -11.6°
Drops below altitude 10° 09:06:15 10° 185° (S) 2,562 5.8 -10.8°
Enters shadow 09:07:39 - 187° (S) 3,107 6.2 -10.6°
